Radiation Dose at Monitoring Post of Fukushima Daini Nuclear Power Station
Date,Time,MP-1(microSv/h),MP-2(microSv/h),MP-3(microSv/h),MP-4(microSv/h),MP-5(microSv/h),MP-6(microSv/h),MP-7(microSv/h),Wind Direction,Wind Velocity(m/s),Rain
2013/08/25,00:00,0.9,0.6,0.9,0.8,0.8,0.4,0.3,west-northwest,7.5,No
2013/08/25,00:10,0.9,0.6,0.9,0.8,0.8,0.4,0.3,west-northwest,7.4,No
2013/08/25,00:20,0.9,0.6,0.9,0.8,0.8,0.4,0.3,west-northwest,6.2,No
2013/08/25,00:30,0.9,0.6,0.9,0.8,0.8,0.4,0.3,west-northwest,5.7,No
2013/08/25,00:40,0.9,0.6,0.9,0.8,0.8,0.4,0.3,west-northwest,4.9,No
2013/08/25,00:50,0.9,0.6,0.9,0.8,0.8,0.4,0.3,west-northwest,4.1,No
2013/08/25,01:00,0.9,0.6,0.9,0.8,0.8,0.4,0.3,west-northwest,2.6,No
2013/08/25,01:10,0.9,0.6,0.9,0.8,0.8,0.4,0.3,west,4.6,No
2013/08/25,01:20,0.9,0.6,0.9,0.8,0.8,0.4,0.3,west-northwest,6.4,No
2013/08/25,01:30,0.9,0.6,0.9,0.8,0.8,0.4,0.3,west,6.4,No
2013/08/25,01:40,0.9,0.6,0.9,0.8,0.8,0.4,0.3,west-northwest,6.2,No
2013/08/25,01:50,0.9,0.6,0.9,0.8,0.8,0.4,0.3,west-northwest,6.0,No
2013/08/25,02:00,0.9,0.6,0.9,0.8,0.8,0.4,0.3,west-northwest,5.5,No
2013/08/25,02:10,0.9,0.6,0.9,0.8,0.8,0.4,0.3,west-northwest,5.0,No
2013/08/25,02:20,0.9,0.6,0.9,0.8,0.8,0.4,0.3,west,5.2,No
2013/08/25,02:30,0.9,0.6,0.9,0.8,0.8,0.4,0.3,west,5.6,No
2013/08/25,02:40,0.9,0.6,0.9,0.8,0.8,0.4,0.3,west,6.3,No
2013/08/25,02:50,0.9,0.6,0.9,0.8,0.8,0.4,0.3,west,7.2,No
2013/08/25,03:00,0.9,0.6,0.9,0.8,0.8,0.4,0.3,west-northwest,6.7,No
2013/08/25,03:10,0.9,0.6,0.9,0.8,0.8,0.4,0.3,west-northwest,5.1,No
2013/08/25,03:20,0.9,0.6,0.9,0.8,0.8,0.4,0.3,northwest,4.7,No
2013/08/25,03:30,0.9,0.6,0.9,0.8,0.8,0.4,0.3,northwest,5.9,No
2013/08/25,03:40,0.9,0.6,0.9,0.8,0.8,0.4,0.3,west-northwest,5.2,No
2013/08/25,03:50,0.9,0.6,0.9,0.8,0.8,0.4,0.3,west-northwest,5.3,No
2013/08/25,04:00,0.9,0.6,0.9,0.8,0.8,0.4,0.3,west-northwest,4.8,No
2013/08/25,04:10,0.9,0.6,0.9,0.8,0.8,0.4,0.3,west-northwest,4.2,No
2013/08/25,04:20,0.9,0.6,0.9,0.8,0.8,0.4,0.3,west-northwest,3.6,No
2013/08/25,04:30,0.9,0.6,0.9,0.8,0.8,0.4,0.3,west-northwest,3.8,No
2013/08/25,04:40,0.9,0.6,0.9,0.8,0.8,0.4,0.3,west,4.4,No
2013/08/25,04:50,0.9,0.6,0.9,0.8,0.8,0.4,0.3,west-northwest,4.6,No
2013/08/25,05:00,0.9,0.6,0.9,0.8,0.8,0.4,0.3,west-northwest,4.6,No
2013/08/25,05:10,0.9,0.6,0.9,0.8,0.8,0.4,0.3,west-northwest,4.2,No
2013/08/25,05:20,0.9,0.6,0.9,0.8,0.8,0.4,0.3,west-northwest,4.0,No
2013/08/25,05:30,0.9,0.6,0.9,0.8,0.8,0.4,0.3,west-northwest,4.2,No
2013/08/25,05:40,0.9,0.6,0.9,0.8,0.8,0.4,0.3,west-northwest,4.0,No
2013/08/25,05:50,0.9,0.6,0.9,0.8,0.8,0.4,0.3,west-northwest,4.4,No
2013/08/25,06:00,0.9,0.6,0.9,0.8,0.8,0.4,0.3,west-southwest,3.3,No
2013/08/25,06:10,0.9,0.6,0.9,0.8,0.8,0.4,0.3,south-southwest,3.3,No
2013/08/25,06:20,0.9,0.6,0.9,0.8,0.8,0.4,0.3,southwest,3.1,No
2013/08/25,06:30,0.9,0.6,0.9,0.8,0.8,0.4,0.3,southwest,4.5,No
2013/08/25,06:40,0.9,0.6,0.9,0.8,0.8,0.4,0.3,southwest,5.8,No
2013/08/25,06:50,0.9,0.6,0.9,0.8,0.8,0.4,0.3,west-southwest,4.5,No
2013/08/25,07:00,0.9,0.6,0.9,0.8,0.8,0.4,0.3,southwest,4.0,No
2013/08/25,07:10,0.9,0.6,0.9,0.8,0.8,0.4,0.3,southwest,3.4,No
2013/08/25,07:20,0.9,0.6,0.9,0.8,0.8,0.4,0.3,southwest,4.2,No
2013/08/25,07:30,0.9,0.6,0.9,0.8,0.8,0.4,0.3,south-southwest,3.0,No
2013/08/25,07:40,0.9,0.6,0.9,0.8,0.8,0.4,0.3,south-southwest,2.5,No
2013/08/25,07:50,0.9,0.6,0.9,0.9,0.8,0.4,0.3,south-southwest,3.3,No
2013/08/25,08:00,0.9,0.6,0.9,0.9,0.8,0.4,0.3,southwest,3.5,No
2013/08/25,08:10,0.9,0.6,0.9,0.9,0.8,0.4,0.3,south-southwest,2.1,No
2013/08/25,08:20,0.9,0.6,0.9,0.9,0.8,0.4,0.3,south-southwest,2.6,No
2013/08/25,08:30,0.9,0.6,0.9,0.9,0.8,0.4,0.3,south-southwest,2.2,No
2013/08/25,08:40,0.9,0.6,0.9,0.9,0.8,0.4,0.3,south,2.1,No
2013/08/25,08:50,0.9,0.6,0.9,0.9,0.8,0.4,0.3,south-southeast,2.5,No
2013/08/25,09:00,0.9,0.6,0.9,0.9,0.8,0.4,0.3,south,4.0,No
2013/08/25,09:10,0.9,0.6,0.9,0.9,0.8,0.4,0.3,south,4.5,No
2013/08/25,09:20,0.9,0.6,0.9,0.9,0.8,0.4,0.3,south,4.1,No
2013/08/25,09:30,0.9,0.6,0.9,0.9,0.8,0.4,0.3,south,3.7,No
2013/08/25,09:40,0.9,0.6,0.9,0.9,0.8,0.4,0.3,south,3.9,No
2013/08/25,09:50,0.9,0.6,0.9,0.9,0.8,0.4,0.3,south,5.2,No
2013/08/25,10:00,0.9,0.6,0.9,0.9,0.8,0.4,0.3,south,5.9,No
2013/08/25,10:10,0.9,0.6,0.9,0.9,0.8,0.4,0.3,south,7.5,No
2013/08/25,10:20,0.9,0.6,0.9,0.9,0.8,0.4,0.3,south,7.6,No
2013/08/25,10:30,0.9,0.6,0.9,0.9,0.8,0.4,0.3,south,7.1,No
2013/08/25,10:40,0.9,0.6,0.9,0.9,0.8,0.4,0.3,south,7.5,No
2013/08/25,10:50,0.9,0.6,0.9,0.9,0.8,0.4,0.3,south-southeast,7.0,No
2013/08/25,11:00,0.9,0.6,0.9,0.9,0.8,0.4,0.3,south,7.7,No
2013/08/25,11:10,0.9,0.6,0.9,0.9,0.8,0.4,0.3,south,7.8,No
2013/08/25,11:20,0.9,0.6,0.9,0.9,0.8,0.4,0.3,south,6.9,No
2013/08/25,11:30,0.9,0.6,0.9,0.9,0.8,0.4,0.3,south,5.9,No
2013/08/25,11:40,0.9,0.6,0.9,0.9,0.8,0.4,0.3,south-southwest,6.8,No
2013/08/25,11:50,0.9,0.6,0.9,0.9,0.8,0.4,0.3,south-southwest,5.7,No
2013/08/25,12:00,0.9,0.6,0.9,0.9,0.8,0.4,0.3,south-southwest,4.5,No
2013/08/25,12:10,0.9,0.6,0.9,0.9,0.8,0.4,0.3,south-southwest,7.5,No
2013/08/25,12:20,0.9,0.6,0.9,0.9,0.8,0.4,0.3,south-southwest,10.0,No
2013/08/25,12:30,0.9,0.6,0.9,0.9,0.8,0.4,0.3,south-southwest,8.1,No
2013/08/25,12:40,0.9,0.6,0.9,0.9,0.8,0.4,0.3,south-southwest,5.7,No
2013/08/25,12:50,0.9,0.6,0.9,0.9,0.8,0.4,0.3,south,6.8,No
2013/08/25,13:00,0.9,0.6,0.9,0.9,0.8,0.4,0.3,south-southwest,5.9,No
2013/08/25,13:10,0.9,0.6,0.9,0.9,0.8,0.4,0.3,south,8.6,No
2013/08/25,13:20,0.9,0.6,0.9,0.9,0.8,0.4,0.3,south,7.7,No
2013/08/25,13:30,0.9,0.6,0.9,0.9,0.8,0.4,0.3,south,8.1,No
2013/08/25,13:40,0.9,0.6,0.9,0.9,0.8,0.4,0.3,south,9.0,No
2013/08/25,13:50,0.9,0.6,0.9,0.9,0.8,0.4,0.3,south,9.0,No
2013/08/25,14:00,0.9,0.6,0.9,0.9,0.8,0.4,0.3,south,7.5,No
2013/08/25,14:10,0.9,0.6,0.9,0.9,0.8,0.4,0.3,south,8.7,No
2013/08/25,14:20,0.9,0.6,0.9,0.9,0.8,0.4,0.3,south,8.7,No
2013/08/25,14:30,0.9,0.6,0.9,0.9,0.8,0.4,0.3,south,8.1,No
2013/08/25,14:40,0.9,0.6,0.9,0.9,0.8,0.4,0.3,south,9.0,No
2013/08/25,14:50,0.9,0.6,0.9,0.9,0.8,0.4,0.3,south,9.5,No
2013/08/25,15:00,0.9,0.6,0.9,0.9,0.8,0.4,0.3,south,8.7,No
2013/08/25,15:10,0.9,0.6,0.9,0.9,0.8,0.4,0.3,south,7.2,No
2013/08/25,15:20,0.9,0.6,0.9,0.9,0.8,0.4,0.3,south,9.0,No
2013/08/25,15:30,0.9,0.6,0.9,0.9,0.8,0.4,0.3,south,9.5,No
2013/08/25,15:40,0.9,0.6,0.9,0.9,0.8,0.4,0.3,south,8.7,No
2013/08/25,15:50,0.9,0.6,0.9,0.9,0.8,0.4,0.3,south,7.8,No
2013/08/25,16:00,0.9,0.6,0.9,0.9,0.8,0.4,0.3,south,8.4,No
2013/08/25,16:10,0.9,0.6,0.9,0.9,0.8,0.4,0.3,south,8.5,No
2013/08/25,16:20,0.9,0.6,0.9,0.9,0.8,0.4,0.3,north-northeast,1.7,No
2013/08/25,16:30,0.9,0.6,0.9,0.9,0.8,0.4,0.3,north-northeast,6.0,No
2013/08/25,16:40,0.9,0.6,0.9,0.9,0.8,0.4,0.3,north-northeast,7.7,No
2013/08/25,16:50,0.9,0.6,0.9,0.9,0.8,0.4,0.3,north-northeast,6.2,No
2013/08/25,17:00,0.9,0.6,0.9,0.9,0.8,0.4,0.3,north,4.4,No
2013/08/25,17:10,0.9,0.6,0.9,0.9,0.8,0.4,0.3,north,3.4,No
2013/08/25,17:20,0.9,0.6,0.9,0.9,0.8,0.4,0.3,north,3.5,No
2013/08/25,17:30,0.9,0.6,0.9,0.9,0.8,0.4,0.3,north-northeast,1.4,No
2013/08/25,17:40,0.9,0.6,0.9,0.9,0.8,0.4,0.3,-,CALM,No
2013/08/25,17:50,0.9,0.6,0.9,0.9,0.8,0.4,0.3,-,CALM,No
2013/08/25,18:00,0.9,0.6,0.9,0.9,0.8,0.4,0.3,-,CALM,No
2013/08/25,18:10,0.9,0.6,0.9,0.9,0.8,0.4,0.3,-,CALM,No
2013/08/25,18:20,0.9,0.6,0.9,0.9,0.8,0.4,0.3,-,CALM,No
2013/08/25,18:30,0.9,0.6,0.9,0.9,0.8,0.4,0.3,-,CALM,No
2013/08/25,18:40,0.9,0.6,0.9,0.9,0.8,0.4,0.3,west-northwest,1.0,No
2013/08/25,18:50,0.9,0.6,0.9,0.9,0.8,0.4,0.3,north,1.1,No
2013/08/25,19:00,0.9,0.6,0.9,0.9,0.8,0.4,0.3,north-northwest,1.2,No
2013/08/25,19:10,0.9,0.6,0.9,0.9,0.8,0.4,0.3,-,CALM,No
2013/08/25,19:20,0.9,0.6,0.9,0.9,0.8,0.4,0.3,west-southwest,0.9,No
2013/08/25,19:30,0.9,0.6,0.9,0.9,0.8,0.4,0.3,southwest,1.3,No
2013/08/25,19:40,0.9,0.6,0.9,0.9,0.8,0.4,0.3,southwest,1.6,No
2013/08/25,19:50,0.9,0.6,0.9,0.9,0.8,0.4,0.3,west,1.6,No
2013/08/25,20:00,0.9,0.6,0.9,0.9,0.8,0.4,0.3,north,0.6,No
2013/08/25,20:10,0.9,0.6,0.9,0.9,0.8,0.4,0.3,north-northwest,0.8,No
2013/08/25,20:20,0.9,0.6,0.9,0.9,0.8,0.4,0.3,north,2.0,No
2013/08/25,20:30,0.9,0.6,0.9,0.9,0.8,0.4,0.3,north,4.1,No
2013/08/25,20:40,0.9,0.6,0.9,0.9,0.8,0.4,0.3,north-northwest,4.1,No
2013/08/25,20:50,0.9,0.6,0.9,0.9,0.8,0.4,0.3,north-northwest,4.0,No
2013/08/25,21:00,0.9,0.6,0.9,0.9,0.8,0.4,0.3,north,4.3,No
2013/08/25,21:10,0.9,0.6,0.9,0.9,0.8,0.4,0.3,north-northwest,6.2,No
2013/08/25,21:20,0.9,0.6,0.9,0.9,0.8,0.4,0.3,north-northwest,4.8,No
2013/08/25,21:30,0.9,0.6,0.9,0.9,0.8,0.4,0.3,north-northwest,3.9,No
2013/08/25,21:40,0.9,0.6,0.9,0.9,0.8,0.4,0.3,northwest,2.3,No
2013/08/25,21:50,0.9,0.6,0.9,0.9,0.8,0.4,0.3,west-northwest,2.5,No
2013/08/25,22:00,0.9,0.6,0.9,0.9,0.8,0.4,0.3,west,3.1,No
2013/08/25,22:10,0.9,0.6,0.9,0.8,0.8,0.4,0.3,west-southwest,2.3,No
2013/08/25,22:20,0.9,0.6,0.9,0.9,0.8,0.4,0.3,west-northwest,0.9,No
2013/08/25,22:30,0.9,0.6,0.9,0.9,0.8,0.4,0.3,west-northwest,1.2,No
2013/08/25,22:40,0.9,0.6,0.9,0.9,0.8,0.4,0.3,north-northeast,1.8,No
2013/08/25,22:50,0.9,0.6,0.9,0.9,0.8,0.4,0.3,north,1.6,No
2013/08/25,23:00,0.9,0.6,0.9,0.9,0.8,0.4,0.3,north-northeast,1.7,No
2013/08/25,23:10,0.9,0.6,0.9,0.9,0.8,0.4,0.3,north,1.0,No
2013/08/25,23:20,0.9,0.6,0.9,0.9,0.8,0.4,0.3,northwest,1.0,No
2013/08/25,23:30,0.9,0.6,0.9,0.9,0.8,0.4,0.3,north-northwest,2.8,No
2013/08/25,23:40,0.9,0.6,0.9,0.8,0.8,0.4,0.3,north-northwest,2.8,No
2013/08/25,23:50,0.9,0.6,0.9,0.8,0.8,0.4,0.3,northwest,4.7,No
